| time (UTC) | temp C | wind direction | speed KPH | gust KPH | rain 1hr cm | rain 24hr cm | rain mn cm | humidity % | barometer mb |
| 20260901223038 | 27 | 172 | 16.1 | 30.6 | 0.00 | 0.00 | 0.00 | 26 | 1010.0 |
| 20260901221534 | 27 | 161 | 17.7 | 35.4 | 0.00 | 0.00 | 0.00 | 26 | 1010.3 |
| 20260901214533 | 26 | 179 | 16.1 | 29.0 | 0.00 | 0.00 | 0.00 | 26 | 1010.5 |
| 20260901213101 | 27 | 161 | 11.3 | 30.6 | 0.00 | 0.00 | 0.00 | 26 | 1010.7 |
| 20260901211537 | 26 | 173 | 14.5 | 32.2 | 0.00 | 0.00 | 0.00 | 27 | 1010.8 |
| 20260901210035 | 26 | 152 | 14.5 | 32.2 | 0.00 | 0.00 | 0.00 | 26 | 1011.0 |
| 20260901204539 | 26 | 155 | 20.9 | 32.2 | 0.00 | 0.00 | 0.00 | 26 | 1011.0 |
| 20260901203052 | 26 | 150 | 19.3 | 33.8 | 0.00 | 0.00 | 0.00 | 26 | 1011.2 |
| 20260901201535 | 26 | 142 | 19.3 | 35.4 | 0.00 | 0.00 | 0.00 | 27 | 1011.5 |
| 20260901200037 | 26 | 170 | 19.3 | 37.0 | 0.00 | 0.00 | 0.00 | 28 | 1011.6 |
| 20260901194542 | 25 | 150 | 24.1 | 37.0 | 0.00 | 0.00 | 0.00 | 29 | 1011.8 |
| 20260901193046 | 25 | 138 | 20.9 | 35.4 | 0.00 | 0.00 | 0.00 | 29 | 1011.9 |
| 20260901191535 | 25 | 138 | 27.4 | 45.1 | 0.00 | 0.00 | 0.00 | 29 | 1012.0 |
| 20260901190036 | 25 | 145 | 24.1 | 37.0 | 0.00 | 0.00 | 0.00 | 32 | 1012.1 |
| 20260901184534 | 25 | 142 | 25.7 | 41.8 | 0.00 | 0.00 | 0.00 | 31 | 1012.5 |
| 20260901183045 | 24 | 133 | 20.9 | 38.6 | 0.00 | 0.00 | 0.00 | 32 | 1012.6 |
| 20260901181537 | 23 | 135 | 24.1 | 35.4 | 0.00 | 0.00 | 0.00 | 35 | 1012.7 |
| 20260901180034 | 23 | 136 | 25.7 | 38.6 | 0.00 | 0.00 | 0.00 | 35 | 1012.9 |
| 20260901174534 | 22 | 153 | 20.9 | 32.2 | 0.00 | 0.00 | 0.00 | 38 | 1013.0 |
| 20260901173050 | 21 | 138 | 22.5 | 35.4 | 0.00 | 0.00 | 0.00 | 40 | 1013.2 |
| 20260901171540 | 20 | 146 | 20.9 | 38.6 | 0.00 | 0.00 | 0.00 | 42 | 1013.2 |
| 20260901170034 | 20 | 132 | 22.5 | 35.4 | 0.00 | 0.00 | 0.00 | 42 | 1013.4 |
| 20260901164536 | 20 | 155 | 25.7 | 37.0 | 0.00 | 0.00 | 0.00 | 43 | 1013.4 |
| 20260901163036 | 20 | 164 | 19.3 | 32.2 | 0.00 | 0.00 | 0.00 | 44 | 1013.5 |
| 20260901161537 | 19 | 145 | 17.7 | 29.0 | 0.00 | 0.00 | 0.00 | 45 | 1013.5 |
| 20260901160038 | 18 | 131 | 20.9 | 27.4 | 0.00 | 0.00 | 0.00 | 47 | 1013.6 |
| 20260901154538 | 18 | 147 | 12.9 | 22.5 | 0.00 | 0.00 | 0.00 | 48 | 1013.7 |
| 20260901153036 | 17 | 156 | 9.7 | 16.1 | 0.00 | 0.00 | 0.00 | 51 | 1013.9 |
| 20260901151534 | 17 | 171 | 8.0 | 14.5 | 0.00 | 0.00 | 0.00 | 53 | 1013.9 |
| 20260901150036 | 17 | 129 | 3.2 | 9.7 | 0.00 | 0.00 | 0.00 | 55 | 1014.1 |
| 20260901144534 | 16 | 115 | 8.0 | 12.9 | 0.00 | 0.00 | 0.00 | 57 | 1013.9 |
| 20260901143043 | 15 | 86 | 4.8 | 8.0 | 0.00 | 0.00 | 0.00 | 61 | 1013.8 |
| 20260901141542 | 13 | 65 | 4.8 | 8.0 | 0.00 | 0.00 | 0.00 | 68 | 1013.8 |
| 20260901140050 | 12 | 351 | 1.6 | 4.8 | 0.00 | 0.00 | 0.00 | 72 | 1013.6 |
| 20260901134537 | 11 | 355 | 1.6 | 4.8 | 0.00 | 0.00 | 0.00 | 76 | 1013.5 |
| 20260901133038 | 10 | 355 | 3.2 | 8.0 | 0.00 | 0.00 | 0.00 | 78 | 1013.6 |
| 20260901131538 | 10 | 355 | 4.8 | 8.0 | 0.00 | 0.00 | 0.00 | 78 | 1013.5 |
| 20260901130043 | 9 | 14 | 4.8 | 8.0 | 0.00 | 0.00 | 0.00 | 78 | 1013.5 |
| 20260901124537 | 9 | 21 | 6.4 | 9.7 | 0.00 | 0.00 | 0.00 | 77 | 1013.6 |
| 20260901123035 | 9 | 38 | 6.4 | 8.0 | 0.00 | 0.00 | 0.00 | 77 | 1013.6 |
| 20260901121533 | 9 | 44 | 4.8 | 8.0 | 0.00 | 0.00 | 0.00 | 76 | 1013.7 |
| 20260901120049 | 9 | 42 | 8.0 | 12.9 | 0.00 | 0.00 | 0.00 | 75 | 1013.6 |
| 20260901114535 | 9 | 24 | 4.8 | 8.0 | 0.00 | 0.00 | 0.00 | 73 | 1013.8 |
| 20260901113043 | 10 | 36 | 6.4 | 8.0 | 0.00 | 0.00 | 0.00 | 69 | 1013.9 |
| 20260901111621 | 11 | 56 | 4.8 | 11.3 | 0.00 | 0.00 | 0.00 | 68 | 1014.0 |
| 20260901110042 | 11 | 57 | 8.0 | 12.9 | 0.00 | 0.00 | 0.00 | 67 | 1013.9 |
| 20260901104538 | 12 | 73 | 8.0 | 11.3 | 0.00 | 0.00 | 0.00 | 63 | 1013.8 |
| 20260901103039 | 12 | 97 | 6.4 | 9.7 | 0.00 | 0.00 | 0.00 | 64 | 1014.0 |
| 20260901101537 | 12 | 96 | 4.8 | 12.9 | 0.00 | 0.00 | 0.00 | 63 | 1014.0 |
| 20260901100039 | 12 | 83 | 6.4 | 11.3 | 0.00 | 0.00 | 0.00 | 64 | 1014.1 |
| 20260901094539 | 12 | 90 | 6.4 | 11.3 | 0.00 | 0.00 | 0.00 | 64 | 1014.1 |
| 20260901093039 | 12 | 115 | 6.4 | 11.3 | 0.00 | 0.00 | 0.00 | 63 | 1014.1 |
| 20260901091538 | 13 | 117 | 6.4 | 11.3 | 0.00 | 0.00 | 0.00 | 61 | 1014.0 |
| 20260901090039 | 13 | 134 | 6.4 | 11.3 | 0.00 | 0.00 | 0.00 | 62 | 1014.1 |
| 20260901084539 | 13 | 132 | 4.8 | 8.0 | 0.00 | 0.00 | 0.00 | 61 | 1014.1 |
| 20260901083039 | 13 | 150 | 3.2 | 4.8 | 0.00 | 0.00 | 0.00 | 61 | 1014.1 |
| 20260901081537 | 13 | 157 | 1.6 | 4.8 | 0.00 | 0.00 | 0.00 | 60 | 1014.3 |
| 20260901080036 | 13 | 155 | 6.4 | 8.0 | 0.00 | 0.00 | 0.00 | 60 | 1014.4 |
| 20260901074535 | 13 | 146 | 4.8 | 8.0 | 0.00 | 0.00 | 0.00 | 58 | 1014.4 |
| 20260901073037 | 13 | 126 | 4.8 | 9.7 | 0.00 | 0.00 | 0.00 | 59 | 1014.5 |
| 20260901071536 | 13 | 109 | 3.2 | 6.4 | 0.00 | 0.00 | 0.00 | 60 | 1014.5 |
| 20260901070036 | 14 | 128 | 9.7 | 12.9 | 0.00 | 0.00 | 0.00 | 56 | 1014.4 |
| 20260901064534 | 14 | 130 | 9.7 | 12.9 | 0.00 | 0.00 | 0.00 | 56 | 1014.5 |
| 20260901063038 | 13 | 86 | 3.2 | 11.3 | 0.00 | 0.00 | 0.00 | 57 | 1014.5 |
| 20260901061536 | 13 | 142 | 6.4 | 11.3 | 0.00 | 0.00 | 0.00 | 56 | 1014.7 |
| 20260901060035 | 14 | 146 | 8.0 | 14.5 | 0.00 | 0.00 | 0.00 | 54 | 1014.5 |
| 20260901054538 | 14 | 159 | 9.7 | 14.5 | 0.00 | 0.00 | 0.00 | 54 | 1014.8 |
| 20260901053052 | 14 | 132 | 4.8 | 8.0 | 0.00 | 0.00 | 0.00 | 53 | 1014.9 |
| 20260901051548 | 15 | 148 | 6.4 | 9.7 | 0.00 | 0.00 | 0.00 | 51 | 1014.9 |
| 20260901050036 | 15 | 136 | 6.4 | 9.7 | 0.00 | 0.00 | 0.00 | 51 | 1015.0 |
| 20260901044551 | 15 | 103 | 4.8 | 6.4 | 0.00 | 0.00 | 0.00 | 50 | 1015.0 |
| 20260901043036 | 16 | 118 | 8.0 | 11.3 | 0.00 | 0.00 | 0.00 | 50 | 1014.9 |
| 20260901041535 | 15 | 118 | 6.4 | 9.7 | 0.00 | 0.00 | 0.00 | 51 | 1015.0 |
| 20260901040058 | 16 | 120 | 8.0 | 12.9 | 0.00 | 0.00 | 0.00 | 48 | 1014.9 |
| 20260901034537 | 16 | 132 | 11.3 | 12.9 | 0.00 | 0.00 | 0.00 | 48 | 1014.8 |
| 20260901033037 | 17 | 126 | 11.3 | 12.9 | 0.00 | 0.00 | 0.00 | 46 | 1014.6 |
| 20260901031535 | 17 | 113 | 9.7 | 11.3 | 0.00 | 0.00 | 0.00 | 45 | 1014.5 |
| 20260901030036 | 18 | 118 | 6.4 | 11.3 | 0.00 | 0.00 | 0.00 | 43 | 1014.4 |
| 20260901024535 | 18 | 95 | 4.8 | 8.0 | 0.00 | 0.00 | 0.00 | 43 | 1014.5 |
| 20260901023051 | 20 | 141 | 4.8 | 8.0 | 0.00 | 0.00 | 0.00 | 38 | 1014.4 |
| 20260901021537 | 21 | 150 | 4.8 | 9.7 | 0.00 | 0.00 | 0.00 | 37 | 1014.4 |
| 20260901020043 | 21 | 151 | 6.4 | 9.7 | 0.00 | 0.00 | 0.00 | 38 | 1014.5 |
| 20260901014550 | 21 | 157 | 6.4 | 8.0 | 0.00 | 0.00 | 0.00 | 37 | 1014.4 |
| 20260901013036 | 22 | 183 | 6.4 | 12.9 | 0.00 | 0.00 | 0.00 | 36 | 1014.4 |
| 20260901011539 | 22 | 205 | 9.7 | 14.5 | 0.00 | 0.00 | 0.00 | 36 | 1014.4 |
| 20260901010036 | 22 | 186 | 11.3 | 16.1 | 0.00 | 0.00 | 0.00 | 35 | 1014.5 |
| 20260901004543 | 22 | 200 | 12.9 | 22.5 | 0.00 | 0.00 | 0.00 | 35 | 1014.6 |
| 20260901003037 | 22 | 197 | 12.9 | 20.9 | 0.00 | 0.00 | 0.00 | 36 | 1014.7 |
| 20260901001536 | 22 | 202 | 11.3 | 27.4 | 0.00 | 0.00 | 0.00 | 36 | 1014.7 |
| 20260901000039 | 22 | 165 | 11.3 | 22.5 | 0.00 | 0.00 | 0.00 | 36 | 1014.6 |
| 20260831234537 | 22 | 209 | 11.3 | 24.1 | 0.00 | 0.00 | 0.00 | 36 | 1014.8 |
| 20260831233035 | 23 | 234 | 9.7 | 19.3 | 0.00 | 0.00 | 0.00 | 37 | 1014.8 |
| 20260831231538 | 22 | 69 | 4.8 | 14.5 | 0.00 | 0.00 | 0.00 | 37 | 1014.8 |
| 20260831230041 | 22 | 144 | 17.7 | 29.0 | 0.00 | 0.00 | 0.00 | 38 | 1014.9 |
| 20260831224538 | 22 | 215 | 14.5 | 24.1 | 0.00 | 0.00 | 0.00 | 38 | 1014.9 |